Regional Weather Roundup
Issued by NWS Jackson, KY

Home | Current Version | Previous Version | Graphics & Text | Print | Product List | Glossary On
Versions: 1 2 3 4 5 6 7 8 9 10 11 12 13 14 15 16 17 18 19 20 21 22 23 24 25 26 27 28 29 30 31 32 33 34 35 36 37 38 39 40 41 42 43 44 45 46 47 48 49 50
000
ASUS43 KJKL 102110
RWRJKL

EAST KENTUCKY HOURLY WEATHER ROUNDUP
NATIONAL WEATHER SERVICE JACKSON KY
400 PM EST SUN DEC 10 2017

NOTE: "FAIR" INDICATES FEW OR NO CLOUDS BELOW 12,000 FEET WITH
NO SIGNIFICANT WEATHER AND/OR OBSTRUCTIONS TO VISIBILITY.

* THESE REPORTS ARE NOT UNDER NWS QUALITY CONTROL AND MAY NOT
  REPORT WEATHER SUCH AS PRECIPITATION AND FOG.

KYZ079-080-083-085-087-088-110-112-115-119-120-102200
...EASTERN KENTUCKY...

CITY           SKY/WX    TMP DP  RH WIND       PRES   REMARKS
JACKSON        MOSUNNY   37  17  44 S7        30.05F WCI  32
LONDON         SUNNY     40  14  34 SW14G23   30.08F WCI  32
SOMERSET*      MOSUNNY   39  18  41 S10       30.11F WCI  32
MONTICELLO*    SUNNY     40  20  44 S7G21     30.12F
WILLIAMSBURG*  CLEAR     41  16  36 SW8       30.10F
MIDDLESBORO*   SUNNY     41  18  39 S3        30.12S
HARLAN APT*    CLEAR     41  12  30 CALM      30.08F
PIKE CO APT*     N/A     37  15  39 S5        30.04F WCI  34
BIG SANDY APT* PTCLDY    37  16  42 SW6       30.05F WCI  33
MOREHEAD APT*  CLOUDY    36  16  44 SW12      30.05F WCI  27
$$

KYZ035-036-041-042-044-050-067-078-099-102200
...CENTRAL KENTUCKY...

CITY           SKY/WX    TMP DP  RH WIND       PRES   REMARKS
MT STERLING*   PTSUNNY   36  19  51 SW14      30.04F WCI  27
FLEMING/MASON* CLOUDY    35  18  51 SW10      30.02F WCI  27
DANVILLE*      CLOUDY    36  19  51 SW13G20   30.05F WCI  27
LEXINGTON      MOSUNNY   38  19  46 S14       30.02F WCI  30
FRANKFORT      MOSUNNY   39  17  41 S14G25    30.00F WCI  31
LOUISVILLE     MOSUNNY   43  17  35 S12G23    30.01F
LEBANON*         N/A     39  18  41 S15       30.04F WCI  31
GLASGOW*       MOSUNNY   42  19  39 SW13      30.08F
BOWLING GREEN  MOSUNNY   45  19  35 SW17G26   30.09F
$$

KYZ091>093-OHZ055-061-077-WVZ005-015-034-035-042-102200
...SOUTHERN OHIO/WEST VIRGINIA...

CITY           SKY/WX    TMP DP  RH WIND       PRES   REMARKS
COVINGTON      PTSUNNY   35  20  54 S13G23    29.96F WCI  26
COLUMBUS       CLOUDY    31  20  63 S13G22    29.97F WCI  21
DAYTON         MOSUNNY   31  20  63 SW14G23   29.93F WCI  21
WILMINGTON     CLOUDY    30  21  69 S14       29.94F WCI  19
HUNTINGTON     CLOUDY    37  14  38 S9G21     30.03F WCI  30
CHARLESTON     MOCLDY    38  16  40 SW8       30.03F WCI  32
PINEVILLE*       N/A     38  17  42 MISG      30.08F
BECKLEY        MOCLDY    31  15  52 SW8       29.99F WCI  23
BLUEFIELD      SUNNY     32  13  45 W10       30.00S WCI  24
LOGAN CO APT*  CLOUDY    36  16  44 CALM      30.02F
$$

VAZ002-007-008-TNZ017-027-036-066-071-102200
...SOUTHWEST VIRGINIA/EAST TENNESSEE...

CITY           SKY/WX    TMP DP  RH WIND       PRES   REMARKS
WISE*          SUNNY     36  16  44 SW14      30.04S WCI  27
JONESVILLE*      N/A     39  16  38 SW7       30.13S WCI  34
ABINGDON*      SUNNY     37  22  56 SW10      30.08S WCI  29
BRISTOL        MOSUNNY   38  18  44 SW12      30.11F WCI  30
MORRISTOWN*    CLEAR     39  18  41 SW12      30.13S WCI  32
SEVIERVILLE*   CLEAR     43  19  39 MISG      30.14F
KNOXVILLE      SUNNY     40  24  53 SW14      30.16S WCI  32
LAFOLLETTE*    CLEAR     43  19  39 S9        30.16S
OAK RIDGE      SUNNY     43  20  39 VRB7      30.17S
CROSSVILLE     SUNNY     39  13  34 SW8       30.13S WCI  33
NASHVILLE      MOSUNNY   49  17  28 SW8G22    30.14F
$$

...KEY TO REMARKS...
VSB - VISIBILITY IN MILES
WCI - WIND CHILL INDEX
HX  - HEAT INDEX

$$



USA.gov is the U.S. government's official web portal to all federal, state and local government web resources and services.